CST,Max TemperatureF,Mean TemperatureF,Min TemperatureF,Max Dew PointF,MeanDew PointF,Min DewpointF,Max Humidity, Mean Humidity, Min Humidity, Max Sea Level PressureIn, Mean Sea Level PressureIn, Min Sea Level PressureIn, Max VisibilityMiles, Mean VisibilityMiles, Min VisibilityMiles, Max Wind SpeedMPH, Mean Wind SpeedMPH, Max Gust SpeedMPH,PrecipitationIn, CloudCover, Events, WindDirDegrees
2011-12-1,47,39,31,32,29,26,87,71,51,30.27,30.22,30.17,10,10,10,9,6,,0.00,1,,208
2011-12-2,41,36,30,34,31,27,93,82,71,30.47,30.40,30.32,10,10,7,15,8,17,0.00,5,,85
2011-12-3,53,46,39,45,41,35,88,79,63,30.29,30.18,30.02,10,8,4,18,11,23,0.00,6,Rain,174
2011-12-4,54,45,36,50,40,32,89,84,75,30.22,30.01,29.85,10,8,4,23,17,32,0.00,8,Rain,263
2011-12-5,39,36,34,34,32,30,92,84,77,30.31,30.27,30.24,10,8,4,16,9,22,0.00,8,Rain,332
2011-12-6,37,34,32,34,30,26,88,81,71,30.28,30.24,30.18,10,10,10,17,10,16,0.00,7,,39
2011-12-7,37,32,26,29,24,19,86,72,54,30.14,30.08,30.01,10,10,7,18,8,24,0.00,4,,267
2011-12-8,37,32,27,30,27,24,88,79,68,30.24,30.19,30.13,10,10,7,7,5,,0.00,6,,263
2011-12-9,32,28,23,30,20,11,93,74,48,30.41,30.30,30.20,10,9,2,16,9,21,0.00,4,Snow,300
2011-12-10,30,21,12,15,10,7,79,63,41,30.55,30.49,30.44,10,10,10,13,8,,0.00,1,,249
2011-12-11,47,36,26,34,27,21,82,73,59,30.42,30.38,30.33,10,10,10,15,11,18,0.00,0,,188
2011-12-12,48,38,29,30,27,24,85,68,43,30.39,30.35,30.32,10,10,10,13,9,,0.00,3,,179
2011-12-13,46,42,39,41,36,31,93,78,68,30.39,30.34,30.26,10,8,2,9,4,,0.01,8,Rain,174
2011-12-14,58,50,43,56,48,41,95,92,90,30.21,29.92,29.68,10,4,2,23,12,29,0.93,8,Rain-Thunderstorm,183
2011-12-15,58,47,35,56,37,27,90,77,65,30.23,29.91,29.66,10,10,7,28,18,40,0.01,8,Rain,276
2011-12-16,35,30,26,27,25,22,89,78,65,30.41,30.35,30.29,10,10,7,14,8,18,0.00,0,,307
2011-12-17,37,34,31,32,30,28,93,86,76,30.35,30.25,30.19,10,8,2,9,5,,0.00,6,Snow,219
2011-12-18,50,39,28,37,32,27,95,80,58,30.22,30.12,29.93,10,8,2,17,7,23,0.00,0,,213
2011-12-19,52,47,41,42,39,36,79,69,61,30.11,29.96,29.87,10,10,7,17,13,26,0.00,6,,268
2011-12-20,41,40,38,39,34,29,95,82,65,30.16,30.01,29.79,10,8,2,13,9,16,0.03,8,Rain,77
2011-12-21,41,39,37,40,39,35,96,92,85,29.91,29.76,29.66,10,5,0,16,6,21,0.02,8,Fog-Rain,261
2011-12-22,39,36,32,37,34,31,96,91,81,30.23,30.07,29.94,10,5,2,15,7,21,0.00,4,Rain-Snow,338
2011-12-23,34,28,23,27,24,19,89,78,66,30.38,30.31,30.23,10,10,10,17,8,22,0.00,3,,270
2011-12-24,42,34,25,31,27,22,87,77,61,30.32,30.26,30.20,10,10,10,17,9,23,0.00,0,,222
2011-12-25,46,40,35,32,30,28,81,69,55,30.29,30.17,30.10,10,10,10,22,13,28,0.00,0,,270
2011-12-26,46,36,27,33,30,25,93,75,57,30.33,30.17,29.96,10,10,10,20,9,26,0.00,2,,201
2011-12-27,41,38,33,36,33,27,95,82,64,29.96,29.74,29.63,10,8,3,25,12,32,0.02,7,Rain,284
2011-12-28,36,30,24,32,24,19,93,76,62,30.08,30.00,29.87,10,10,10,14,6,18,0.00,4,,184
2011-12-29,53,44,34,37,34,32,90,72,51,29.78,29.64,29.54,10,10,7,23,11,31,0.00,2,,241
2011-12-30,46,42,39,45,41,35,93,90,77,29.79,29.55,29.41,10,6,1,21,9,25,0.14,8,Rain,128
2011-12-31,44,39,34,41,37,33,94,89,83,30.02,29.86,29.62,10,6,2,24,10,32,0.00,6,,172